EHI
0 0 0 0 0 0 0 0 0 0 0 0 0 0 0 0 0 0 0 0 0 0 0 0 0 0 0 0 0 0 0 0 0 1 3 3 3 2 1 0 0 0 0 0 0 0 0 0 0
0 0 0 0 0 0 0 0 0 0 0 0 0 0 0 0 0 0 0 0 0 0 0 0 0 0 0 0 0 0 0 0 1 2 3 3 3 2 1 0 0 0 0 0 0 0 0 0 0
0 0 0 0 0 0 0 0 0 0 0 0 0 0 0 0 0 0 0 0 0 0 0 0 1 0 0 0 0 0 0 0 1 2 3 3 3 1 0 0 0 0 0 0 0 0 1 1 1
0 0 0 0 0 0 0 0 0 0 0 0 0 0 0 0 0 0 0 0 0 0 0 0 0 0 0 0 0 0 0 0 0 1 2 2 2 1 0 0 0 0 0 0 0 0 1 1 1
0 0 0 0 0 0 0 0 0 0 0 0 0 0 0 0 0 1 1 1 0 0 0 0 0 0 0 0 0 0 0 0 0 0 1 1 1 0 0 0 0 0 0 0 0 0 0 0 0
0 0 0 0 0 0 0 0 0 0 0 0 0 0 0 0 1 2 2 1 0 0 0 0 0 0 0 0 0 0 0 0 0 0 0 0 0 0 0 0 0 0 0 0 0 0 0 0 0
0 0 0 0 0 0 0 0 0 0 0 0 0 0 0 0 1 2 2 1 0 0 0 0 0 0 0 0 0 0 0 0 0 0 0 0 0 0 0 0 0 0 0 0 0 0 0 0 0
0 0 0 0 0 0 0 0 0 0 0 0 0 0 0 0 1 3 3 1 0 0 0 0 0 0 0 0 0 0 0 0 0 0 0 0 0 0 0 0 0 0 0 0 0 0 0 0 0
0 0 0 0 0 0 0 0 0 0 0 0 0 0 0 0 1 3 3 1 0 0 0 0 0 0 0 0 0 0 0 0 0 0 0 0 0 0 0 0 0 0 0 0 0 0 0 0 0
0 0 0 0 0 0 0 0 0 0 0 0 0 0 0 0 1 3 3 2 1 0 0 0 0 0 0 0 0 0 0 0 0 0 0 0 0 0 0 0 0 0 0 0 0 0 0 0 0
0 0 0 0 0 0 0 0 0 0 0 0 0 0 0 0 1 2 3 2 1 0 0 0 0 0 0 0 0 0 0 0 0 0 0 0 0 0 0 0 0 0 0 0 0 0 0 0 0
0 0 0 0 0 0 0 0 0 0 0 0 0 0 0 0 0 1 2 2 1 0 0 0 0 0 0 0 0 0 0 0 0 0 0 0 0 0 0 0 0 0 0 0 0 0 0 0 0
0 0 0 0 0 0 0 0 0 0 0 0 0 0 0 0 0 0 1 1 0 0 0 0 0 0 0 0 0 0 0 0 0 0 0 0 0 0 0 0 0 0 0 0 0 0 0 0 0
0 0 0 0 0 0 0 0 0 0 0 0 0 0 0 0 0 0 0 0 0 0 0 0 0 0 0 0 0 0 0 0 0 0 0 0 0 0 0 0 0 0 0 0 0 0 0 0 0
0 0 0 0 0 0 0 0 0 0 0 0 0 0 0 0 0 0 0 0 0 0 0 0 0 0 0 0 0 0 0 0 0 0 0 0 0 0 0 0 0 0 0 0 0 0 0 0 0
0 0 0 0 0 0 0 0 0 0 0 0 0 0 0 0 0 0 0 0 0 0 0 0 0 0 0 0 0 0 0 0 0 0 0 0 0 0 0 0 0 0 0 0 0 0 0 0 0
0 0 0 0 0 0 0 0 0 0 0 0 0 0 0 0 0 0 0 0 0 0 0 0 0 0 0 0 0 0 0 0 0 0 0 0 0 0 0 0 0 0 0 0 0 0 0 0 0
0 0 0 0 0 0 0 0 0 0 0 0 0 0 0 0 0 0 0 0 0 0 0 0 0 0 0 0 0 0 0 0 0 0 0 0 0 0 0 0 0 0 0 0 0 0 0 0 0
0 0 0 0 0 0 0 0 0 0 0 0 0 0 0 0 0 0 0 0 0 0 0 0 0 0 0 0 0 0 0 0 0 0 0 0 0 0 0 0 0 0 0 0 0 0 0 0 0
0 0 0 0 0 0 0 0 0 0 0 0 0 0 0 0 0 0 0 0 0 0 0 0 0 0 0 0 0 0 0 0 0 0 0 0 0 0 0 0 0 0 0 0 0 0 0 0 0
0 0 0 0 0 0 0 0 0 0 0 0 0 0 0 0 0 0 0 0 0 0 0 0 0 0 0 0 0 0 0 0 0 0 0 0 0 0 0 0 0 0 0 0 0 0 0 0 0
0 0 0 0 0 0 0 0 0 0 0 0 0 0 0 0 0 0 0 0 0 0 0 0 0 0 0 0 0 0 0 0 0 0 0 0 0 0 0 0 0 0 0 0 0 0 0 0 0
0 0 0 0 0 0 0 0 0 0 0 0 0 0 0 0 0 0 0 0 0 0 0 0 0 0 0 0 0 0 0 0 0 0 0 0 0 0 0 0 0 0 0 0 0 0 0 0 0
0 0 0 0 0 0 0 0 0 0 0 0 0 0 0 0 0 0 0 0 0 0 0 0 0 0 0 1 1 1 1 0 0 0 0 0 0 0 0 0 0 0 0 0 0 0 0 0 0
0 0 0 0 0 0 0 0 0 0 0 0 0 0 0 0 0 0 0 0 0 0 0 1 0 0 0 1 2 2 1 0 0 0 0 0 0 0 0 0 0 0 0 0 0 0 0 0 0
0 0 0 0 0 0 0 0 0 0 0 0 0 0 0 0 0 0 0 0 0 0 0 0 0 0 0 1 3 3 2 0 0 0 0 0 0 0 0 0 0 0 0 0 0 0 0 0 0
0 0 0 0 0 0 0 0 0 0 0 0 0 0 0 0 0 0 0 0 0 0 0 0 0 0 0 2 3 2 1 0 0 0 0 0 0 0 0 0 0 0 0 0 0 0 0 0 0
0 0 0 0 0 0 0 0 0 0 0 0 0 0 0 0 0 0 1 1 1 0 0 0 0 0 0 1 2 1 1 0 0 0 0 0 0 0 0 0 0 0 0 0 0 0 0 0 0
0 0 0 0 0 0 0 0 0 0 0 0 0 0 0 0 0 0 1 2 2 1 0 0 0 0 0 1 1 1 0 0 0 0 0 0 0 0 0 0 0 0 0 0 0 0 0 0 0
0 0 0 0 0 0 0 0 0 0 0 0 0 0 0 0 0 0 1 3 3 2 1 0 0 0 0 0 1 1 1 0 0 0 0 0 0 0 0 0 0 0 0 0 0 0 0 0 0
Wind_Speed
3 2 2 3 4 2 5 5 3 4 4 5 5 4 5 6 6 6 4 3 4 4 5 6 6 6 8 8 9 9 10 10 10 10 10 10 10 10 10 10 9 10 10 9 9 10 9 9 8
1 2 3 3 2 3 5 4 5 6 6 5 5 5 6 7 6 6 4 4 4 5 5 6 7 7 8 9 9 9 9 10 10 10 10 10 10 10 10 10 9 9 10 10 10 10 11 10 10
2 3 3 1 1 4 6 5 7 7 5 2 4 5 5 5 5 5 5 5 5 5 5 8 8 8 9 9 9 9 9 9 9 9 10 10 10 10 10 10 10 10 10 10 10 10 11 11 12
2 3 2 1 6 6 5 6 6 6 5 3 4 6 6 5 4 6 6 5 6 6 6 9 8 9 9 9 9 9 9 9 9 9 9 9 9 10 9 10 10 10 10 10 10 10 11 11 12
2 2 2 4 6 6 5 5 3 4 4 4 4 7 7 6 7 7 6 6 6 6 7 8 8 8 8 9 9 8 8 8 9 9 9 9 9 9 9 9 9 10 10 10 9 9 11 11 11
2 2 2 5 7 6 5 3 3 5 6 5 5 6 6 6 7 6 6 6 6 6 6 7 8 7 8 8 8 8 8 8 8 9 9 9 9 9 9 9 9 9 9 9 9 10 11 11 11
1 0 3 5 6 6 5 3 3 4 6 5 3 5 7 7 7 6 6 6 6 6 6 6 6 7 8 8 8 8 8 8 8 8 8 9 9 9 9 9 9 9 9 9 10 11 11 11 11
2 1 4 4 4 5 4 4 4 4 6 5 2 4 6 8 7 7 6 6 6 6 6 6 6 5 7 8 9 8 8 8 8 8 8 7 8 8 7 8 9 9 9 10 10 10 11 11 11
3 2 3 4 3 5 5 4 4 3 5 4 4 5 8 10 9 7 7 6 6 5 5 6 6 6 6 7 8 7 7 6 5 7 6 2 4 6 6 10 9 9 10 10 10 9 9 9 10
1 1 4 3 3 4 5 4 4 4 5 5 6 7 9 9 8 7 7 7 7 6 5 5 5 5 6 5 5 4 5 4 3 4 5 4 4 5 6 9 8 9 9 9 8 7 6 3 5
1 3 4 3 3 4 4 4 2 3 3 4 7 9 10 8 7 6 6 6 6 6 5 5 5 5 4 4 3 3 3 3 4 4 5 4 4 3 3 3 5 5 5 5 6 4 4 5 5
3 4 3 3 3 3 4 4 3 2 3 4 7 9 9 9 7 6 6 5 6 5 5 4 4 4 4 4 3 3 3 3 3 3 4 3 2 2 3 2 3 3 3 4 4 4 6 6 7
4 4 4 4 4 4 5 4 4 4 4 6 7 8 8 8 6 6 5 5 5 5 5 4 3 4 3 4 3 3 3 3 4 3 3 4 2 2 3 3 3 3 3 4 4 4 5 6 7
4 5 5 4 4 4 4 4 3 3 4 6 7 6 7 6 6 5 5 5 5 5 5 5 4 4 3 3 3 3 3 3 3 3 3 4 3 2 2 3 3 3 4 4 4 5 5 5 6
4 5 5 3 2 2 2 3 2 3 5 6 6 5 5 5 6 5 5 5 5 5 5 5 4 4 4 4 3 2 2 3 3 2 3 3 3 2 3 3 3 3 4 4 4 6 5 5 5
4 4 3 3 2 2 4 2 4 3 5 5 5 5 5 5 5 5 5 5 5 5 5 5 4 4 4 3 3 2 2 3 2 2 2 3 3 3 3 3 3 4 3 3 4 3 4 4 4
5 3 3 3 2 2 3 2 4 4 4 5 5 5 6 6 5 5 5 5 5 5 5 6 5 4 4 3 3 2 3 2 2 2 2 2 2 2 3 2 3 3 3 3 3 3 3 5 5
3 3 2 2 3 3 4 2 4 5 4 4 5 5 6 6 6 6 6 5 5 5 5 5 5 5 5 3 3 3 2 2 2 2 2 2 2 2 2 2 3 3 3 2 3 5 4 4 4
2 2 2 1 1 3 4 3 3 4 5 5 5 5 6 6 6 6 6 6 6 6 5 4 4 4 4 3 3 3 2 1 2 2 2 2 1 1 2 1 2 2 2 2 3 4 5 3 3
4 4 2 2 2 3 3 4 3 5 6 6 6 6 7 6 7 7 6 6 7 7 6 5 4 4 4 2 2 2 2 2 1 1 1 2 2 1 1 2 2 2 2 3 3 3 2 2 1
5 4 3 1 1 3 4 5 5 5 5 6 6 6 6 7 8 8 8 7 7 7 6 5 5 5 4 4 3 3 3 2 2 2 1 1 2 2 0 1 2 2 3 2 2 2 2 2 1
4 2 3 3 5 2 4 3 3 5 5 6 6 6 6 7 8 8 8 8 8 7 6 6 6 5 5 5 4 4 3 3 2 2 2 2 2 2 1 0 1 2 2 2 2 2 2 2 1
1 1 3 4 6 5 5 5 2 5 5 6 7 7 7 7 7 8 8 8 8 7 7 6 6 6 6 5 5 4 3 2 2 2 3 2 2 2 1 1 1 2 1 2 2 1 1 1 1
3 4 3 5 6 6 4 6 2 3 3 4 5 6 6 7 7 7 7 6 6 6 6 6 6 6 5 5 6 5 4 4 4 3 3 2 2 2 2 1 1 1 1 1 1 1 1 1 0
6 5 4 5 5 3 1 5 1 2 1 2 2 4 5 6 7 7 7 6 6 6 7 7 7 6 6 6 6 5 5 5 4 4 3 2 2 2 2 1 1 1 1 1 1 1 1 1 0
7 7 4 3 3 1 4 4 2 2 1 2 1 2 4 5 6 6 7 6 6 7 7 8 8 7 7 6 5 5 5 3 3 3 3 2 2 2 2 1 1 2 2 2 1 1 1 1 1
6 6 5 6 4 4 3 2 2 2 1 1 1 3 4 4 5 6 6 6 6 7 7 7 8 7 7 7 6 5 5 4 4 4 3 2 2 2 2 2 2 2 2 2 2 1 1 1 1
4 4 5 5 4 5 3 4 2 2 1 1 2 3 3 3 4 4 5 6 6 6 6 7 7 8 7 7 6 4 5 5 4 4 4 4 3 3 3 3 3 3 3 3 2 1 1 2 2
5 6 6 5 5 4 3 1 3 2 1 0 1 2 3 3 2 3 3 4 5 5 5 6 7 7 7 8 7 7 6 5 5 4 4 4 4 4 4 3 3 3 3 3 3 2 2 2 2
6 7 7 6 5 5 5 0 4 2 2 1 1 2 2 2 2 2 2 3 4 4 5 6 6 7 7 7 8 7 6 6 6 5 5 5 4 4 4 4 4 3 3 2 2 2 2 2 2
Wind_Direction
182 225 246 244 227 150 83 75 81 98 80 69 68 68 67 47 32 70 81 87 79 87 85 94 80 76 81 80 81 82 83 83 86 86 88 90 89 86 84 83 83 81 80 76 73 71 71 69 66
240 251 242 248 243 130 92 86 85 74 94 103 82 74 78 71 59 86 98 85 90 85 81 82 85 83 84 84 83 83 82 83 85 85 85 87 88 88 84 81 82 81 78 75 72 71 69 66 63
204 258 269 255 69 76 96 90 95 96 102 99 85 62 58 69 83 93 93 103 99 88 83 86 84 85 84 85 83 79 78 81 83 84 84 86 88 87 84 82 81 81 77 71 69 71 71 69 67
237 225 229 138 92 69 81 101 112 116 101 83 101 91 80 60 75 97 109 110 99 92 87 88 80 82 82 84 83 79 77 79 82 81 82 85 86 84 83 82 79 79 76 72 71 72 72 72 72
244 245 153 111 89 86 90 98 112 102 92 94 96 96 88 79 94 108 114 108 99 94 92 91 83 86 84 84 83 82 80 78 79 80 81 83 84 82 80 79 78 76 76 74 74 75 73 74 74
239 239 151 113 103 101 97 96 105 90 99 104 103 101 90 110 117 115 114 112 104 99 98 100 96 85 86 86 85 84 81 77 77 78 79 79 80 81 82 79 78 77 78 77 76 77 76 76 74
303 54 101 109 112 108 92 79 79 89 98 86 92 105 112 129 121 122 116 113 107 103 100 102 105 106 103 91 84 84 82 79 77 77 76 79 79 77 79 80 77 79 83 81 79 77 76 75 72
315 169 123 114 113 96 93 93 79 75 88 90 81 109 122 132 131 125 117 114 110 105 102 103 99 100 108 107 92 85 82 80 79 75 72 82 96 92 87 88 78 78 81 84 85 83 83 79 73
260 188 118 106 103 101 118 118 95 86 105 92 68 72 106 128 138 137 130 125 117 110 107 105 105 102 102 100 105 108 103 93 109 101 93 111 94 90 92 71 75 78 80 82 83 86 87 91 84
262 109 85 76 85 107 120 108 114 131 116 112 108 103 121 139 148 144 138 132 126 120 114 111 109 109 107 101 109 102 98 100 89 86 88 79 76 72 75 90 84 84 89 92 88 99 114 111 90
65 82 94 95 93 116 119 107 102 136 110 118 133 139 144 147 148 145 136 128 122 121 122 126 123 113 108 108 98 92 91 90 81 76 87 80 80 94 86 99 117 113 118 101 106 116 82 80 73
105 84 88 98 105 123 114 117 108 67 65 97 126 142 152 159 158 151 144 138 135 128 127 126 128 125 118 108 99 98 94 90 84 76 75 82 74 72 79 78 75 88 92 90 88 81 84 78 76
116 103 90 101 113 113 114 106 95 77 88 114 132 148 160 159 156 152 152 153 148 140 135 127 137 126 119 107 102 101 90 81 85 71 66 74 78 80 87 87 83 83 89 94 90 86 85 81 72
105 113 110 110 117 121 117 105 105 91 127 137 145 154 161 158 165 162 167 167 162 151 144 137 146 133 132 123 113 95 90 95 84 76 72 76 77 80 85 87 85 83 81 81 87 84 82 80 76
142 132 125 123 134 130 160 118 94 115 144 147 155 158 163 163 172 177 175 175 165 155 150 146 145 141 137 121 102 98 96 90 85 85 76 80 73 80 90 88 93 92 90 91 85 87 83 84 86
178 177 156 135 160 161 226 130 103 142 164 160 165 163 167 169 181 182 179 180 171 166 156 150 157 156 143 126 115 112 98 86 87 89 74 75 75 71 81 90 92 94 91 89 91 94 94 89 82
199 191 164 149 165 187 220 160 134 161 178 175 176 176 178 175 179 177 176 177 172 169 166 164 161 162 149 136 134 109 95 88 84 79 75 60 64 77 97 91 96 101 103 103 102 94 90 92 90
187 187 177 165 148 198 208 195 164 179 195 194 191 190 188 185 181 175 172 169 168 169 172 165 155 164 156 158 146 121 102 96 81 72 59 52 61 73 92 115 116 110 112 108 106 101 93 90 95
235 211 199 143 160 228 228 227 201 189 203 209 206 200 195 189 177 173 176 175 174 171 172 160 166 165 168 163 161 154 142 128 99 81 70 70 67 82 96 120 122 123 127 128 125 118 116 113 111
213 214 206 149 149 245 247 251 227 203 212 220 219 209 202 193 182 178 181 184 185 178 173 169 176 173 173 169 160 148 126 129 102 93 75 69 77 84 127 165 144 141 133 143 139 141 145 129 156
223 243 242 237 195 215 259 231 202 195 207 213 222 220 208 202 196 186 187 191 190 189 180 182 186 178 175 168 158 146 141 158 160 148 114 69 66 73 62 145 142 151 162 157 171 173 181 178 183
227 241 245 237 247 223 252 270 185 189 198 209 216 213 213 206 202 194 189 193 193 192 184 190 187 186 179 176 177 173 174 170 160 143 131 133 106 98 82 150 159 167 163 163 187 205 217 222 213
260 200 225 243 258 257 234 261 185 181 213 216 212 210 207 202 200 194 192 196 197 190 187 192 187 186 181 186 180 194 186 159 141 133 140 147 121 111 112 134 159 164 165 166 177 198 230 240 271
173 185 197 226 247 249 240 249 219 176 226 219 203 203 200 196 195 193 185 185 190 188 187 191 191 185 184 189 191 197 181 174 159 154 150 152 136 128 115 111 155 161 161 168 175 194 184 240 284
212 224 222 217 216 224 163 245 240 65 297 269 227 197 188 185 188 187 183 182 187 189 191 190 189 185 184 193 197 191 185 189 179 168 168 177 161 150 130 141 152 141 152 167 170 168 144 154 181
213 234 252 267 262 195 190 238 122 90 340 303 239 181 177 178 183 188 191 189 192 192 192 192 190 189 184 189 194 194 180 189 175 173 176 185 168 149 141 156 128 121 133 144 140 149 127 121 120
211 226 260 275 273 266 218 204 186 179 206 181 123 139 161 172 181 189 191 191 191 191 193 195 192 191 188 188 186 191 186 182 179 183 177 177 174 152 161 164 145 132 137 137 131 132 125 118 115
259 229 220 239 258 250 233 231 231 167 168 104 119 135 145 162 177 187 194 193 190 192 196 195 194 193 192 189 184 179 187 185 188 185 180 179 172 165 166 167 152 143 138 144 132 124 99 116 97
195 211 232 238 253 271 262 154 44 355 347 56 118 127 134 148 167 180 194 191 189 188 190 193 193 195 193 191 186 184 185 186 186 187 180 180 176 177 176 171 168 154 147 150 152 152 136 133 133
242 232 230 239 233 248 273 163 80 22 9 360 95 127 134 144 147 151 166 180 187 190 197 198 195 196 196 194 191 188 182 183 189 189 184 185 181 183 186 180 178 167 162 162 163 159 164 165 152